Погода в Кременчуг-Константиновском

Россия / Кабардино-Балкарская Республика     43°47′31″N   43°38′45″E
темп.,
°C
ветер,
м/с
пор.,
м/с
влажн.,
%
обл.,
%
осадки,
мм/ч
давл.,
гПа
погр.,
м
16 мая, вс
вс1600:00+19зсз2279100 0.0 101112
03:00+17зюз228094 0.0 101011
06:00+19зсз117425 0.0 101030
09:00+23в23635 0.0 1009504
12:00+27в45544 0.0 10081131
15:00+28в44480 0.0 10061343
18:00+26в23605 0.0 100573
21:00+19всв12697 0.0 100620
17 мая, пн
пн1700:00+17ссв116890 0.0 100511
03:00+16ссв116699 0.0 100511
06:00+17ююв016966 0.0 100532
09:00+23в22580 0.0 1005416
12:00+28св33441 0.0 1005977
15:00+28с324253 0.0 10051380
18:00+24сз5962100 0.1 1006245
21:00+17зсз4885100 3.1 1009169
18 мая, вт
вт1800:00+17зсз41183100 0.1 1007235
03:00+16сз51389100 1.3 1009515
06:00+16зсз3890100 0.3 1011379
09:00+18ссз4675100 0.6 1012706
12:00+22ссз345781 0.1 10131371
15:00+23ссз345255 0.1 10121679
18:00+20сз2373100 0.6 101378
21:00+17зюз338099 0.6 101546
19 мая, ср
ср1900:00+15з2279100 0.0 101423
03:00+14зсз118211 0.0 101511
06:00+16юз11785 0.0 101654
09:00+21юв226536 0.0 1015628
12:00+24вюв34540 0.0 10141245
15:00+26вюв455172 0.0 10131549
18:00+23в4864100 0.0 1012248
21:00+18ю33705 0.0 101325
20 мая, чт
чт2000:00+17ююз11765 0.0 101211
03:00+16ююз11785 0.0 101211
06:00+17ю12710 0.0 101262
09:00+23вюв34560 0.0 1011430
12:00+27в44503 0.0 1010970
15:00+29в45470 0.0 10091336
18:00+27в36600 0.0 1009167
21:00+19в24700 0.0 100961